Tracking 27107 objects as of 21-Mar-2023
HD Live streaming from Space Station
objects crossing your sky now

LEMUR 2 MIA-GRACE

Track LEMUR 2 MIA-GRACE now!
10-day predictions
LEMUR 2 MIA-GRACE is classified as:


NORAD ID: 41992
Int'l Code: 2017-008AW
Perigee: 378.0 km
Apogee: 383.3 km
Inclination: 97.2 °
Period: 92.0 minutes
Semi major axis: 6751 km
RCS: Unknown
Launch date: February 15, 2017
Source: United States (US)
Launch site: SRIHARIKOTA (SRI)
Your satellite tracking list
Your tracking list is empty




NASA's NSSDC Master Catalog

Two Line Element Set (TLE):
1 41992U 17008AW  23080.14562281  .00175988  00000-0  17673-2 0  9997
2 41992  97.2234 150.0124 0003885 255.7079 104.3749 15.64909491339119
Source of the keplerian elements: AFSPC